Weather History for Mackinac Island, MI

Change the Weather History Date:

Friday, March 7, 2014

  Actual Average Record
Temperature  
Mean Temperature 23 °F -  
Max Temperature 32 °F 26 °F 53 °F (2012)
Min Temperature 14 °F 13 °F -13 °F (1999)
Degree Days  
Heating Degree Days 42    
Moisture  
Dew Point 17 °F    
Average Humidity 78    
Maximum Humidity 100    
Minimum Humidity 56    
Precipitation  
Precipitation 0.01 in - - ()
Sea Level Pressure  
Sea Level Pressure 29.90 in    
Wind  
Wind Speed 9 mph (SW)    
Max Wind Speed 14 mph    
Max Gust Speed 22 mph    
Visibility 7 miles    
Events Snow    
Averages and records for this station are not official NWS values.
T = Trace of Precipitation, MM = Missing Value Source: NWS Daily Summary

Daily Weather History Graph

Daily Weather History Graph

Search for Another Location

Airport:

Trip Planner

Search our weather history database for the weather conditions in past years. The results will help you decide how hot, cold, wet, or windy it might be!

Date:

Astronomy

Mar. 07, 2014 Rise Set
Actual Time 7:06 AM EST 6:33 PM EST
Civil Twilight 6:36 AM EST 7:03 PM EST
Nautical Twilight 6:02 AM EST 7:37 PM EST
Astronomical Twilight 5:27 AM EST 8:12 PM EST
Moon 10:39 AM EST (3/7) 12:56 AM EST (3/7)
Length of Visible Light 12h 26m
Length of Day
11h 27m
Waxing Crescent, 42% of the Moon is Illuminated
Mar 7
Waxing Crescent
Mar 8
First Quarter
Mar 16
Full
Mar 23
Last Quarter
Mar 30
New

Hourly Weather History & Observations

Time (EST) Temp. Windchill Dew Point Humidity Pressure Visibility Wind Dir Wind Speed Gust Speed Precip Events Conditions
12:18 AM 17.2 °F 4.5 °F 3.9 °F 56% 30.03 in 10.0 mi SSE 11.5 mph 17.3 mph N/A   Clear
12:38 AM 16.7 °F 4.5 °F 3.9 °F 57% 30.03 in 10.0 mi SSE 10.4 mph 18.4 mph N/A   Clear
12:58 AM 16.3 °F 3.4 °F 3.6 °F 57% 30.02 in 10.0 mi SSE 11.5 mph 18.4 mph N/A   Clear
1:18 AM 15.8 °F 3.4 °F 3.2 °F 58% 30.02 in 10.0 mi SSE 10.4 mph - N/A   Clear
1:38 AM 15.6 °F 5.9 °F 3.2 °F 58% 30.03 in 10.0 mi South 6.9 mph - N/A   Clear
1:58 AM 15.4 °F 3.8 °F 3.2 °F 59% 30.02 in 10.0 mi SSE 9.2 mph - N/A   Clear
2:18 AM 15.8 °F 6.1 °F 3.2 °F 58% 30.02 in 10.0 mi SSE 6.9 mph - N/A   Clear
2:38 AM 15.4 °F 3.0 °F 3.2 °F 59% 30.00 in 10.0 mi SSE 10.4 mph - N/A   Clear
2:58 AM 15.8 °F 5.1 °F 3.4 °F 58% 30.00 in 10.0 mi SSE 8.1 mph - N/A   Clear
3:18 AM 15.8 °F 4.2 °F 3.4 °F 58% 29.99 in 10.0 mi SSE 9.2 mph - N/A   Clear
3:38 AM 15.1 °F 2.5 °F 3.2 °F 59% 29.98 in 10.0 mi SSE 10.4 mph - N/A   Clear
3:59 AM 14.9 °F 3.1 °F 3.2 °F 60% 29.97 in 10.0 mi SSE 9.2 mph - N/A   Clear
4:18 AM 14.7 °F 1.4 °F 3.6 °F 61% 29.97 in 10.0 mi SSE 11.5 mph 16.1 mph N/A   Clear
4:38 AM 14.5 °F 1.9 °F 3.7 °F 62% 29.96 in 10.0 mi SSE 10.4 mph - N/A   Clear
4:58 AM 14.5 °F 2.7 °F 3.9 °F 63% 29.97 in 10.0 mi SSE 9.2 mph - N/A   Clear
5:18 AM 14.5 °F 3.6 °F 4.1 °F 63% 29.97 in 10.0 mi South 8.1 mph - N/A   Clear
5:38 AM 14.5 °F 3.6 °F 4.6 °F 65% 29.97 in 10.0 mi South 8.1 mph - N/A   Scattered Clouds
5:58 AM 14.9 °F 0.9 °F 5.2 °F 65% 29.95 in 10.0 mi South 12.7 mph - N/A   Scattered Clouds
6:18 AM 14.4 °F 1.6 °F 5.0 °F 66% 29.94 in 10.0 mi South 10.4 mph - N/A   Clear
6:38 AM 14.4 °F 0.9 °F 5.5 °F 68% 29.93 in 10.0 mi South 11.5 mph - N/A   Clear
6:58 AM 14.9 °F 2.3 °F 6.3 °F 69% 29.93 in 10.0 mi South 10.4 mph - N/A   Clear
7:18 AM 15.8 °F 3.4 °F 7.0 °F 68% 29.92 in 10.0 mi South 10.4 mph - N/A   Clear
7:38 AM 17.6 °F 6.4 °F 9.0 °F 69% 29.92 in 10.0 mi South 9.2 mph - N/A   Clear
7:58 AM 18.3 °F 8.2 °F 9.7 °F 69% 29.91 in 10.0 mi South 8.1 mph - N/A   Scattered Clouds
8:18 AM 18.3 °F 6.6 °F 10.0 °F 70% 29.90 in 10.0 mi South 10.4 mph - N/A   Scattered Clouds
8:38 AM 19.6 °F 8.9 °F 11.3 °F 70% 29.90 in 10.0 mi South 9.2 mph - N/A   Mostly Cloudy
8:58 AM 20.5 °F 11.7 °F 11.8 °F 69% 29.90 in 10.0 mi South 6.9 mph - N/A   Overcast
9:18 AM 21.2 °F 13.6 °F 12.4 °F 69% 29.89 in 10.0 mi South 5.8 mph - N/A   Overcast
9:38 AM 23.2 °F 17.2 °F 13.8 °F 67% 29.88 in 10.0 mi South 4.6 mph - N/A   Overcast
9:58 AM 25.3 °F - 15.6 °F 67% 29.88 in 10.0 mi Calm Calm - N/A   Overcast
10:19 AM 26.6 °F 21.2 °F 17.4 °F 68% 29.87 in 10.0 mi WSW 4.6 mph - N/A   Overcast
10:38 AM 27.1 °F 20.7 °F 18.5 °F 70% 29.87 in 10.0 mi WSW 5.8 mph - N/A   Overcast
10:58 AM 28.4 °F 23.3 °F 19.8 °F 70% 29.86 in 10.0 mi SW 4.6 mph - N/A   Overcast
11:19 AM 29.1 °F 21.3 °F 21.4 °F 73% 29.86 in 10.0 mi SW 8.1 mph - N/A   Overcast
11:38 AM 28.9 °F 21.9 °F 21.9 °F 75% 29.86 in 10.0 mi WSW 6.9 mph - N/A   Overcast
11:58 AM 28.9 °F 21.1 °F 22.1 °F 76% 29.85 in 10.0 mi WSW 8.1 mph 17.3 mph N/A   Overcast
12:19 PM 29.3 °F 19.6 °F 22.8 °F 77% 29.84 in 10.0 mi WSW 11.5 mph 17.3 mph N/A   Overcast
12:38 PM 30.0 °F 21.1 °F 22.6 °F 74% 29.84 in 10.0 mi WSW 10.4 mph 19.6 mph N/A   Overcast
12:59 PM 30.2 °F 21.3 °F 22.8 °F 74% 29.84 in 10.0 mi WSW 10.4 mph 17.3 mph N/A   Overcast
1:18 PM 31.3 °F 22.1 °F 23.0 °F 71% 29.83 in 10.0 mi WSW 11.5 mph 20.7 mph N/A   Mostly Cloudy
1:38 PM 32.0 °F 22.5 °F 23.0 °F 69% 29.82 in 10.0 mi WSW 12.7 mph 18.4 mph N/A   Scattered Clouds
1:59 PM 32.0 °F 23.6 °F 23.2 °F 70% 29.82 in 10.0 mi WSW 10.4 mph 19.6 mph N/A   Mostly Cloudy
2:18 PM 31.8 °F 22.3 °F 23.2 °F 70% 29.81 in 10.0 mi WSW 12.7 mph 20.7 mph N/A   Mostly Cloudy
2:38 PM 30.4 °F 21.0 °F 25.0 °F 80% 29.82 in 1.5 mi WSW 11.5 mph 21.9 mph N/A Snow Light Snow
2:58 PM 29.3 °F 20.8 °F 26.6 °F 90% 29.80 in 2.0 mi WSW 9.2 mph 18.4 mph N/A Snow Light Snow
3:18 PM 30.0 °F 20.5 °F 27.5 °F 90% 29.80 in 1.2 mi West 11.5 mph 19.6 mph N/A Snow Light Snow
3:39 PM 29.7 °F 19.1 °F 27.5 °F 92% 29.82 in 1.0 mi WSW 13.8 mph 20.7 mph N/A Snow Light Snow
3:58 PM 29.3 °F 19.1 °F 27.5 °F 93% 29.81 in 1.0 mi WSW 12.7 mph 19.6 mph N/A Snow Light Snow
4:18 PM 29.1 °F 21.3 °F 28.4 °F 97% 29.80 in 1.0 mi WSW 8.1 mph - N/A Snow Light Snow
4:39 PM 28.9 °F 21.1 °F 28.4 °F 98% 29.81 in 0.8 mi WSW 8.1 mph - N/A Snow Light Snow
4:58 PM 29.1 °F 22.1 °F 28.8 °F 99% 29.81 in 0.8 mi WSW 6.9 mph - N/A Snow Light Snow
5:19 PM 29.1 °F 20.0 °F 28.8 °F 99% 29.82 in 1.0 mi West 10.4 mph - N/A Snow Light Snow
5:38 PM 28.4 °F 19.1 °F 28.2 °F 99% 29.82 in 1.0 mi West 10.4 mph - N/A Snow Light Snow
5:58 PM 28.2 °F 18.9 °F 27.9 °F 99% 29.82 in 1.0 mi West 10.4 mph - N/A Snow Light Snow
6:19 PM 28.2 °F 18.9 °F 27.9 °F 99% 29.83 in 1.0 mi WNW 10.4 mph - N/A Snow Light Snow
6:38 PM 27.5 °F 20.2 °F 27.1 °F 99% 29.85 in 1.0 mi West 6.9 mph - N/A Snow Light Snow
6:58 PM 27.0 °F 19.5 °F 26.6 °F 99% 29.85 in 1.2 mi West 6.9 mph - N/A Snow Light Snow
7:19 PM 26.6 °F 19.1 °F 26.4 °F 99% 29.86 in 1.2 mi WNW 6.9 mph - N/A Snow Light Snow
7:38 PM 26.6 °F 20.0 °F 26.4 °F 99% 29.86 in 1.2 mi WNW 5.8 mph - 0.01 in Snow Light Snow
7:58 PM 26.6 °F 20.0 °F 26.6 °F 100% 29.87 in 1.8 mi WNW 5.8 mph - 0.01 in Snow Light Snow
8:19 PM 26.6 °F 19.1 °F 26.6 °F 100% 29.88 in 2.5 mi NW 6.9 mph - N/A Snow Light Snow
8:38 PM 26.6 °F 20.0 °F 26.6 °F 100% 29.88 in 2.5 mi NW 5.8 mph - N/A Snow Light Snow
8:58 PM 26.6 °F 20.0 °F 26.6 °F 100% 29.90 in 4.0 mi NW 5.8 mph - N/A   Overcast
9:19 PM 26.6 °F 20.0 °F 26.2 °F 99% 29.91 in 4.0 mi NNW 5.8 mph - N/A   Overcast
9:38 PM 26.6 °F 20.0 °F 26.1 °F 98% 29.91 in 5.0 mi NNW 5.8 mph - N/A   Overcast
9:59 PM 26.4 °F 18.9 °F 25.9 °F 98% 29.93 in 5.0 mi NNW 6.9 mph - N/A   Overcast
10:19 PM 26.4 °F 18.9 °F 25.7 °F 97% 29.93 in 5.0 mi NNW 6.9 mph - N/A   Overcast
10:38 PM 26.2 °F 18.6 °F 25.5 °F 97% 29.94 in 5.0 mi NNW 6.9 mph - N/A   Overcast
10:58 PM 25.7 °F 15.7 °F 24.8 °F 96% 29.95 in 5.0 mi North 10.4 mph 16.1 mph N/A   Overcast
11:18 PM 25.7 °F 14.6 °F 23.9 °F 93% 29.95 in 7.0 mi North 12.7 mph - N/A   Overcast
11:38 PM 25.3 °F 14.7 °F 23.7 °F 94% 29.96 in 7.0 mi North 11.5 mph 18.4 mph N/A   Overcast
11:58 PM 24.8 °F 14.0 °F 23.0 °F 93% 29.96 in 7.0 mi North 11.5 mph 17.3 mph N/A   Overcast